When you browse on this site, cookies collect data to enhance your experience and personalize the content and advertising you see.
Visit our Privacy Policy to learn more. By continuing to use the site, you agree to this use of cookies and data.
  • In Germany
  • List of Countries
  • For 7 days
  • Water Temperature
  • Satellite Maps
  • Weather Map
  • Weather Widgets
  • user-avatar
    Login

    Hourly Weather Maun

    Today, 16 January, Wednesday

    Time Temperature Precipitation Wind Pressure Humidity
    00:00 +26°C° 0.1 mm 3 mps 679 mmHg 79%
    01:00 +26°C° 0.1 mm 2 mps 679 mmHg 79%
    02:00 +25°C° 0 mm 2 mps 679 mmHg 77%
    03:00 +25°C° 0 mm 2 mps 679 mmHg 78%
    04:00 +24°C° 0 mm 2 mps 679 mmHg 79%
    05:00 +24°C° 0 mm 2 mps 679 mmHg 80%
    06:00 +25°C° 0 mm 3 mps 680 mmHg 76%
    07:00 +26°C° 0 mm 3 mps 680 mmHg 71%
    08:00 +27°C° 0 mm 4 mps 681 mmHg 62%
    09:00 +29°C° 0 mm 4 mps 681 mmHg 54%
    10:00 +32°C° 0 mm 4 mps 681 mmHg 46%
    11:00 +34°C° 0 mm 3 mps 681 mmHg 38%
    12:00 +36°C° 0 mm 3 mps 681 mmHg 35%
    13:00 +37°C° 0 mm 2 mps 681 mmHg 31%
    14:00 +37°C° 0 mm 2 mps 680 mmHg 30%
    15:00 +37°C° 0 mm 2 mps 680 mmHg 31%
    16:00 +37°C° 0 mm 2 mps 679 mmHg 31%
    17:00 +37°C° 0 mm 3 mps 679 mmHg 31%
    18:00 +35°C° 0 mm 2 mps 679 mmHg 35%
    19:00 +34°C° 0 mm 2 mps 679 mmHg 39%
    20:00 +31°C° 0 mm 1 mps 678 mmHg 42%
    21:00 +30°C° 0 mm 1 mps 679 mmHg 44%
    22:00 +29°C° 0 mm 1 mps 679 mmHg 46%
    23:00 +29°C° 0 mm 1 mps 679 mmHg 48%

    Tomorrow, 17 January, Thursday

    Time Temperature Precipitation Wind Pressure Humidity
    00:00 +28°C° 0 mm 1 mps 679 mmHg 50%
    01:00 +28°C° 0 mm 2 mps 679 mmHg 52%
    02:00 +27°C° 0 mm 2 mps 679 mmHg 54%
    03:00 +27°C° 0 mm 2 mps 679 mmHg 57%
    04:00 +26°C° 0 mm 2 mps 679 mmHg 60%
    05:00 +26°C° 0 mm 3 mps 679 mmHg 63%
    06:00 +26°C° 0 mm 3 mps 679 mmHg 61%
    07:00 +27°C° 0 mm 2 mps 680 mmHg 59%
    08:00 +28°C° 0 mm 2 mps 680 mmHg 57%
    09:00 +31°C° 0 mm 2 mps 681 mmHg 50%
    10:00 +34°C° 0 mm 2 mps 681 mmHg 43%
    11:00 +36°C° 0 mm 2 mps 681 mmHg 36%
    12:00 +36°C° 0 mm 2 mps 681 mmHg 34%
    13:00 +35°C° 0 mm 1 mps 680 mmHg 33%
    14:00 +35°C° 0 mm 1 mps 680 mmHg 32%
    15:00 +36°C° 0 mm 1 mps 679 mmHg 31%
    16:00 +36°C° 0 mm 1 mps 679 mmHg 30%
    17:00 +36°C° 0 mm 1 mps 678 mmHg 29%
    18:00 +35°C° 0 mm 1 mps 678 mmHg 32%
    19:00 +33°C° 0 mm 1 mps 678 mmHg 35%
    20:00 +32°C° 0 mm 1 mps 678 mmHg 38%
    21:00 +31°C° 0 mm 1 mps 679 mmHg 39%
    22:00 +29°C° 0 mm 0 mps 679 mmHg 40%
    23:00 +28°C° 0 mm 0 mps 679 mmHg 41%

    Day after tomorrow, 18 January, Friday

    Time Temperature Precipitation Wind Pressure Humidity
    00:00 +30°C° 0 mm 1 mps 679 mmHg 43%
    01:00 +29°C° 0 mm 1 mps 678 mmHg 45%
    02:00 +28°C° 0 mm 2 mps 678 mmHg 47%
    03:00 +27°C° 0 mm 2 mps 678 mmHg 50%
    04:00 +27°C° 0 mm 2 mps 678 mmHg 53%
    05:00 +26°C° 0 mm 2 mps 678 mmHg 55%
    06:00 +27°C° 0 mm 2 mps 678 mmHg 54%
    07:00 +28°C° 0 mm 3 mps 679 mmHg 52%
    08:00 +29°C° 0 mm 3 mps 680 mmHg 51%
    09:00 +33°C° 0 mm 3 mps 680 mmHg 44%
    10:00 +35°C° 0 mm 2 mps 680 mmHg 37%
    11:00 +38°C° 0 mm 2 mps 681 mmHg 31%
    12:00 +39°C° 0 mm 1 mps 680 mmHg 28%
    13:00 +40°C° 0 mm 1 mps 680 mmHg 25%
    14:00 +38°C° 0 mm 0 mps 679 mmHg 22%
    15:00 +37°C° 0 mm 0 mps 679 mmHg 23%
    16:00 +36°C° 0 mm 0 mps 678 mmHg 23%
    17:00 +36°C° 0 mm 0 mps 678 mmHg 24%
    18:00 +36°C° 0.1 mm 1 mps 678 mmHg 28%
    19:00 +35°C° 0.1 mm 1 mps 678 mmHg 31%
    20:00 +33°C° 0.1 mm 1 mps 678 mmHg 34%
    21:00 +32°C° 0 mm 1 mps 678 mmHg 36%
    22:00 +32°C° 0 mm 1 mps 678 mmHg 38%
    23:00 +31°C° 0 mm 1 mps 679 mmHg 39%

    19 January, Saturday

    Time Temperature Precipitation Wind Pressure Humidity
    00:00 +30°C° 0 mm 2 mps 678 mmHg 42%
    01:00 +30°C° 0 mm 2 mps 678 mmHg 44%
    02:00 +29°C° 0 mm 2 mps 677 mmHg 46%
    03:00 +29°C° 0 mm 2 mps 677 mmHg 49%
    04:00 +28°C° 0 mm 2 mps 677 mmHg 52%
    05:00 +27°C° 0 mm 2 mps 678 mmHg 54%
    06:00 +28°C° 0.1 mm 2 mps 678 mmHg 54%
    07:00 +28°C° 0.1 mm 2 mps 678 mmHg 54%
    08:00 +29°C° 0.1 mm 2 mps 679 mmHg 54%
    09:00 +32°C° 0 mm 2 mps 679 mmHg 45%
    10:00 +36°C° 0 mm 2 mps 680 mmHg 36%
    11:00 +39°C° 0 mm 1 mps 681 mmHg 27%
    12:00 +39°C° 0 mm 2 mps 680 mmHg 26%
    13:00 +40°C° 0 mm 3 mps 679 mmHg 25%
    14:00 +40°C° 0 mm 3 mps 678 mmHg 23%
    15:00 +39°C° 0 mm 3 mps 678 mmHg 23%
    16:00 +39°C° 0 mm 2 mps 677 mmHg 22%
    17:00 +38°C° 0 mm 2 mps 677 mmHg 22%
    18:00 +35°C° 0 mm 1 mps 677 mmHg 23%
    19:00 +34°C° 0 mm 1 mps 677 mmHg 23%
    20:00 +32°C° 0 mm 1 mps 677 mmHg 24%
    21:00 +32°C° 0 mm 1 mps 677 mmHg 24%
    22:00 +32°C° 0 mm 2 mps 678 mmHg 23%
    23:00 +32°C° 0 mm 2 mps 679 mmHg 23%

    20 January, Sunday

    Time Temperature Precipitation Wind Pressure Humidity
    00:00 +31°C° 0 mm 2 mps 679 mmHg 28%
    01:00 +29°C° 0 mm 2 mps 678 mmHg 33%
    02:00 +28°C° 0 mm 3 mps 678 mmHg 37%
    03:00 +27°C° 0 mm 2 mps 678 mmHg 47%
    04:00 +26°C° 0 mm 2 mps 678 mmHg 57%
    05:00 +25°C° 0 mm 2 mps 678 mmHg 67%
    06:00 +26°C° 0 mm 2 mps 679 mmHg 66%
    07:00 +26°C° 0 mm 2 mps 680 mmHg 66%
    08:00 +27°C° 0 mm 3 mps 681 mmHg 65%
    09:00 +29°C° 0 mm 3 mps 681 mmHg 58%
    10:00 +31°C° 0 mm 3 mps 682 mmHg 51%
    11:00 +34°C° 0 mm 4 mps 682 mmHg 44%
    12:00 +35°C° 0 mm 4 mps 681 mmHg 40%
    13:00 +37°C° 0 mm 3 mps 681 mmHg 35%
    14:00 +38°C° 0 mm 3 mps 680 mmHg 31%
    15:00 +37°C° 0 mm 3 mps 680 mmHg 31%
    16:00 +37°C° 0 mm 3 mps 680 mmHg 31%
    17:00 +37°C° 0 mm 3 mps 680 mmHg 31%
    18:00 +35°C° 0 mm 3 mps 680 mmHg 35%
    19:00 +34°C° 0 mm 4 mps 680 mmHg 39%
    20:00 +33°C° 0 mm 5 mps 681 mmHg 43%
    21:00 +30°C° 1.6 mm 4 mps 681 mmHg 51%
    22:00 +29°C° 1.6 mm 4 mps 682 mmHg 59%
    23:00 +27°C° 1.6 mm 4 mps 682 mmHg 67%

    21 January, Monday

    Time Temperature Precipitation Wind Pressure Humidity
    00:00 +27°C° 0.8 mm 4 mps 682 mmHg 66%
    01:00 +26°C° 0.8 mm 4 mps 682 mmHg 66%
    02:00 +26°C° 0.8 mm 4 mps 682 mmHg 66%
    03:00 +25°C° 0 mm 3 mps 682 mmHg 66%
    04:00 +24°C° 0 mm 3 mps 682 mmHg 66%
    05:00 +24°C° 0 mm 3 mps 682 mmHg 65%
    06:00 +23°C° 0 mm 4 mps 683 mmHg 63%
    07:00 +23°C° 0 mm 4 mps 684 mmHg 61%
    08:00 +25°C° 0 mm 5 mps 684 mmHg 58%
    09:00 +27°C° 0 mm 5 mps 685 mmHg 52%
    10:00 +29°C° 0 mm 4 mps 685 mmHg 45%
    11:00 +32°C° 0 mm 4 mps 685 mmHg 39%
    12:00 +33°C° 0 mm 4 mps 684 mmHg 35%
    13:00 +34°C° 0 mm 4 mps 684 mmHg 30%
    14:00 +35°C° 0 mm 4 mps 683 mmHg 26%
    15:00 +35°C° 0 mm 4 mps 682 mmHg 25%
    16:00 +35°C° 0 mm 4 mps 682 mmHg 25%
    17:00 +35°C° 0 mm 4 mps 681 mmHg 24%
    18:00 +33°C° 0 mm 4 mps 681 mmHg 27%
    19:00 +30°C° 0 mm 3 mps 681 mmHg 29%
    20:00 +28°C° 0 mm 3 mps 681 mmHg 32%
    21:00 +27°C° 0 mm 3 mps 682 mmHg 33%
    22:00 +27°C° 0 mm 3 mps 682 mmHg 35%
    23:00 +26°C° 0 mm 2 mps 682 mmHg 36%
    Show more